Regional Weather Roundup
Issued by NWS

Home | Current Version | Previous Version | Text Only | Print | Product List | Glossary Off
Versions: 1 2 3 4 5 6 7 8 9 10 11 12 13 14 15 16 17 18 19 20 21 22 23 24 25 26 27 28 29 30 31 32 33 34 35 36 37 38 39 40 41 42 43 44 45 46 47 48 49 50

000
ASUS45 KPSR 310200
RWRAZ

PRELIMINARY ARIZONA REGIONAL HOURLY WEATHER ROUNDUP
NATIONAL WEATHER SERVICE PHOENIX AZ
700 PM MST THU OCT 30 2014

NOTE: FAIR INDICATES FEW OR NO CLOUDS BELOW 12,000 FEET WITH NO
SIGNIFICANT WEATHER AND/OR OBSTRUCTIONS TO VISIBILITY.

AZZ001>003-036-310300-
NORTHWEST ARIZONA

CITY           SKY/WX    TMP DP  RH WIND       PRES   REMARKS
KINGMAN        CLOUDY    66  33  29 SE7       30.06S
$$

AZZ004>008-015-016-018-310300-
NORTH CENTRAL ARIZONA

CITY           SKY/WX    TMP DP  RH WIND       PRES   REMARKS
GRAND CANYON   MOCLDY    50  18  28 E3        30.28R
PRESCOTT       CLOUDY    61  33  35 S6        30.17R
FLAGSTAFF      CLOUDY    49  23  36 CALM      30.31R
PAYSON         CLOUDY    63  34  34 NE5       30.21S
PAGE           PTCLDY    60  26  27 CALM      30.16S
$$

AZZ009>014-017-310300-
NORTHEAST ARIZONA

CITY           SKY/WX    TMP DP  RH WIND       PRES   REMARKS
WINSLOW        NOT AVBL
SAINT JOHNS    MOCLDY    58  23  26 S3        30.22R
WINDOW ROCK    CLEAR     55  14  19 SW3       30.31R
$$

AZZ023-310300-
GREATER PHOENIX AREA

CITY           SKY/WX    TMP DP  RH WIND       PRES   REMARKS
PHOENIX        MOCLDY    86  43  22 NW3       29.90R
GLENDALE       MOCLDY    81  45  28 CALM      29.92R
DEER VALLEY    MOCLDY    80  38  22 NE6       29.92S
SCOTTSDALE     MOCLDY    81  42  25 N6        29.94S
MESA-GATEWAY   MOCLDY    79  43  27 VRB6      29.94R
CHANDLER       MOCLDY    81  46  30 N8        29.91S
$$

AZZ027-028-310300-
SOUTHWEST MARICOPA COUNTY AND PINAL COUNTY

CITY           SKY/WX    TMP DP  RH WIND       PRES   REMARKS
CASA GRANDE    MOCLDY    79  39  24 N3        29.93R
GILA BEND      PTCLDY    79  41  25 SW3       29.91R
$$

AZZ503-504-507>509-310300-
SOUTHEAST ARIZONA

CITY           SKY/WX    TMP DP  RH WIND       PRES   REMARKS
TUCSON         MOCLDY    82  34  17 NE6       30.00R
RYAN FIELD       N/A     81  43  26 W8        30.00R
NOGALES        CLEAR     74  42  31 S6        30.10R
SAFFORD        CLOUDY    70  36  28 E8        30.07R
$$

AZZ020-021-025-026-031-310300-
SOUTHWEST ARIZONA

CITY           SKY/WX    TMP DP  RH WIND       PRES   REMARKS
YUMA           PTCLDY    83  41  22 CALM      29.87R
$$

CAZ031-033-041-043-047-048-061-310300-
SOUTHERN CALIFORNIA

CITY           SKY/WX    TMP DP  RH WIND       PRES   REMARKS
DOWNTOWN L.A.  CLOUDY    68  57  68 CALM      29.94R
L.A. AIRPORT   CLOUDY    67  61  81 W7        29.94F
SAN DIEGO      MOCLDY    69  62  78 W5        29.97R
BURBANK        CLOUDY    69  54  58 SE6       29.96R
ONTARIO        MOCLDY    70  58  65 SW8       29.95R
RIVERSIDE      CLOUDY    69  59  70 W9        29.95R
PALM SPRINGS   CLOUDY    83  41  22 CALM      29.90R
EL CENTRO NAS  PTCLDY    75  38  26 NE7       29.84S
IMPERIAL       PTCLDY    80  39  23 CALM      29.84S
BLYTHE         PTCLDY    79  36  21 SE6       29.88S
$$

NVZ020-UTZ003-310300-
SOUTHERN NEVADA-UTAH

CITY           SKY/WX    TMP DP  RH WIND       PRES   REMARKS
LAS VEGAS      NOT AVBL
SALT LAKE CITY PTCLDY    52  43  71 CALM      30.12F
$$

NMZ009-TXZ055-310300-
NEW MEXICO-WEST TEXAS

CITY           SKY/WX    TMP DP  RH WIND       PRES   REMARKS
ALBUQUERQUE    CLEAR     64  22  20 E12       30.29R
EL PASO        PTCLDY    70  30  22 NE10      30.18R
$$


........................KEY........................
SKY/WX - SKY CONDITION/WEATHER
TMP    - TEMPERATURE IN FAHRENHEIT
DP     - DEW POINT IN FAHRENHEIT
RH     - RELATIVE HUMIDITY IN PERCENT
WIND   - DIRECTION AND SPEED IN MILES PER HOUR (MPH)
VRB    - VARIABLE WIND DIRECTION
PRES   - MEAN SEA LEVEL PRESSURE IN INCHES OF MERCURY
         F - FALLING PRESSURE   R - RISING PRESSURE
         S - STEADY PRESSURE
VSB    - VISIBILITY IN MILES
HX     - HEAT INDEX IN FAHRENHEIT
WCI    - WIND CHILL INDEX IN FAHRENHEIT
TC     - TEMPERATURE IN CELSIUS WHICH IS ALSO KNOWN AS
         TEMPERATURE IN CENTIGRADE
AFB    - AIR FORCE BASE
         LUKE AFB IS LUKE AIR FORCE BASE
         DAVIS-MONTHAN IS DAVIS-MONTHAN AIR FORCE BASE
NAS    - NAVAL AIR STATION
         EL CENTRO NAS IS EL CENTRO NAVAL AIR STATION
N/A    - NOT AVAILABLE



USA.gov is the U.S. government's official web portal to all federal, state and local government web resources and services.